x

Islay/port Ellen (03105) Weather Station

10:00 - Wed 1st Apr 2015 All times are BST. 1 hours from GMT.

  • Wind
    25mph, 39mph gusts
  • Luft Temp 41°f
  • Sea Pressure 1018mb
  • Islay/port Ellen
  • Islay/port Ellen

More Historic Weather Station data

Upgrade to MSW Pro to gain access to the past 30 days of data for over 8000 Wavebouys and Weather Stations around the globe.

Join Pro

Comparision Forecast

View Surf forecast
   
Mi 04/01 10:00 25 39 mph 1018mb 41f
9:00 26 37 mph 1018mb 43f
8:00 21 33 mph 1017mb 42f
7:00 25 34 mph 1017mb 41f
6:00 24 47 mph 1017mb 39f
5:00 24 49 mph 1017mb 41f
4:00 14 46 mph 1017mb 40f
3:00 30 44 mph 1016mb 42f
2:00 33 46 mph 1016mb 42f
1:00 30 51 mph 1015mb 42f
12:00 34 49 mph 1014mb 41f
Di 03/31 11:00 31 44 mph 1013mb 42f
10:00 31 59 mph 1012mb 40f
9:00 31 55 mph 1011mb 40f
8:00 40 56 mph 1010mb 40f
7:00 34 62 mph 1009mb 42f
6:00 37 54 mph 1007mb 40f
5:00 37 63 mph 1007mb 41f
4:00 38 56 mph 1006mb 39f
3:00 41 53 mph 1005mb 44f
2:00 40 60 mph 1004mb 43f
1:00 49 66 mph 1004mb 37f
12:00 43 66 mph 1002mb 43f
11:00 46 63 mph 1002mb 38f
10:00 40 56 mph 1000mb 43f
9:00 37 56 mph 1000mb 41f
8:00 29 53 mph 999mb 40f
7:00 30 43 mph 998mb 43f
6:00 26 45 mph 996mb 41f
5:00 30 47 mph 995mb 41f
4:00 34 49 mph 993mb 42f
3:00 30 45 mph 991mb 42f
2:00 32 54 mph 988mb 43f
1:00 43 57 mph 984mb 44f
12:00 41 55 mph 982mb 47f
Mo 03/30 11:00 39 60 mph 983mb 47f
10:00 30 61 mph 983mb 47f
9:00 37 52 mph 984mb 48f
8:00 33 47 mph 985mb 47f
7:00 30 40 mph 986mb 49f
6:00 25 38 mph 988mb 47f
5:00 22 30 mph 990mb 43f
4:00 18
mph
994mb 42f
3:00 17
mph
997mb 42f
2:00 22 31 mph 999mb 44f
1:00 22 29 mph 1001mb 45f
12:00 11 43 mph 1001mb 44f
11:00 23 33 mph 1002mb 44f
10:00 24 31 mph 1002mb 45f
9:00 22 33 mph 1002mb 43f
8:00 23 36 mph 1002mb 43f
7:00 24 40 mph 1002mb 40f
6:00 13 49 mph 1002mb 38f
5:00 28 38 mph 1001mb 42f
4:00 32 41 mph 1000mb 41f
3:00 28 41 mph 999mb 40f
2:00 29 47 mph 998mb 40f
1:00 26 51 mph 997mb 38f
12:00 25 36 mph 996mb 40f
So 03/29 11:00 23 41 mph 995mb 39f
10:00 21 34 mph 995mb 40f
9:00 25 39 mph 994mb 42f
8:00 29 46 mph 993mb 41f
7:00 36 44 mph 992mb 44f
6:00 34 45 mph 992mb 44f
5:00 34 47 mph 991mb 46f
4:00 28 41 mph 990mb 46f
3:00 22 36 mph 989mb 45f
2:00 25 32 mph 989mb 46f
1:00 23 32 mph 989mb 43f
12:00 17
mph
989mb 42f
11:00 21
mph
989mb 42f
10:00 18
mph
989mb 43f
9:00 3
mph
989mb 43f
8:00 10
mph
990mb 41f
7:00 17 31 mph 991mb 39f
6:00 6
mph
992mb 42f
5:00 8
mph
992mb 42f
4:00 1
mph
993mb 40f
3:00 5
mph
994mb 41f
2:00 13
mph
994mb 42f
1:00 15
mph
994mb 42f
12:00 13
mph
993mb 40f
Sa 03/28 11:00 9
mph
993mb 40f
10:00 3
mph
992mb 41f
9:00 17
mph
994mb 42f
8:00 14
mph
995mb 43f
7:00 17 30 mph 996mb 43f
6:00 17
mph
997mb 45f
5:00 18
mph
997mb 45f
4:00 24 36 mph 997mb 46f
3:00 25 38 mph 997mb 48f
2:00 31 43 mph 997mb 47f
1:00 29 41 mph 995mb 48f
12:00 33 47 mph 994mb 49f
11:00 30 45 mph 992mb 50f